Weather in Valga

Estonia     57˚46′39″N   26˚02′00″E
temp.,
°C
wind,
m/s
gust,
m/s
humid.,
%
clouds,
%
prec.,
mm/h
press.,
hPa
HPBL,
m
28 november, sat
sat2823:00−1˚n399187 0.1 1017460
02:00+2˚nne399193 0.1 1018697
05:00+1˚n4108494 0.0 1019708
08:00+1˚nne499296 0.1 1020715
11:00+2˚ne4993100 0.3 1022662
14:00+2˚ne4880100 0.4 1023833
17:00+1˚ene388392 0.1 1024755
20:00+1˚ene478597 0.1 1025704
29 november, sun
sun2923:00ene3790100 0.1 1026526
02:00−1˚ene389495 0.1 1027418
05:00ene268394 0.0 1026667
08:00ene368797 0.1 1027552
11:00ene3683100 0.1 1026689
14:00ne378199 0.1 1025720
17:00−1˚ne3790100 0.1 1023532
20:00−1˚ne368697 0.2 1023554
30 november, mon
mon3023:00−1˚nne249599 0.2 1022275
02:00−1˚nnw119798 0.4 102285
05:00−1˚ssw129898 0.4 102185
08:00−2˚s129794 0.4 102185
11:00sse249096 0.1 1021306
14:00s258398 0.1 1021608
17:00−1˚ssw1492100 0.1 1021268
20:00−1˚s2591100 0.1 1021204
1 december, tue
tue123:00−1˚ssw3675100 0.0 1020745
02:00−2˚s3788100 0.1 1020511
05:00−1˚s3793100 0.5 1020492
08:00ssw499199 0.8 1021557
11:00ssw5109396 0.3 1021561
14:00+1˚sw4108696 0.3 1022581
17:00+1˚ssw388899 0.0 1023500
20:00ssw4886100 0.0 1025480
2 december, wed
wed223:00ssw4785100 0.0 1026601
02:00ssw3782100 0.0 1027656
05:00−1˚s3784100 0.0 1027537
08:00−1˚s3786100 0.0 1027518
11:00−1˚s3681100 0.0 1027526
14:00−1˚s3591100 0.1 1026433
17:00−1˚sse2685100 0.1 1026420
20:00−2˚sse2686100 0.1 1026328